Temp
55 55 55 54 55 54 54 54 55 55 54 54 55 56 58 58 57 56 55 55 55 53 54 54 52 53 52 52 53 51 51 51 47 46 48 49 50 51 51 52 52 51 52
55 54 53 54 54 53 53 53 54 54 54 54 55 54 55 55 55 54 53 53 53 52 51 52 51 53 50 50 50 50 50 50 50 47 45 46 48 49 49 49 51 53 49
54 54 53 53 52 52 52 53 53 54 53 54 54 54 53 53 53 54 54 52 52 53 53 52 51 51 49 49 48 47 47 48 46 45 43 46 46 47 46 47 47 46 50
54 53 52 52 52 52 52 52 52 53 53 53 53 53 53 53 53 53 53 53 52 52 51 51 51 50 49 47 47 46 46 45 46 45 44 44 44 42 41 42 42 41 39
53 52 52 52 52 52 51 51 51 51 51 51 51 52 52 52 52 51 51 50 49 48 49 49 49 50 51 49 47 46 47 45 44 42 42 42 40 37 37 36 35 35 35
52 50 51 51 51 50 51 51 51 51 51 50 50 51 51 53 54 53 50 48 48 47 46 48 50 53 54 56 55 54 50 44 42 39 36 35 34 34 34 33 33 32 32
51 51 51 51 51 50 50 49 48 48 50 50 51 51 50 52 54 53 52 48 48 48 48 49 50 51 48 47 53 53 53 53 48 39 35 34 33 33 33 32 32 31 31
51 51 52 51 51 50 49 47 46 43 44 48 48 46 46 51 55 54 51 44 43 42 43 42 42 42 45 43 41 40 39 39 40 42 36 35 35 35 34 35 33 32 32
51 51 52 52 49 48 46 41 39 40 40 40 41 43 43 46 53 51 45 41 40 39 40 41 41 42 51 49 40 38 37 39 49 49 48 49 49 47 40 34 31 31 30
52 52 52 51 49 44 39 39 38 38 39 41 40 41 49 44 52 50 43 40 36 37 38 41 50 45 51 48 37 36 35 36 37 39 39 44 45 42 46 36 33 31 30
54 53 51 49 43 41 39 38 37 37 38 36 36 37 39 42 46 50 48 39 38 37 37 38 40 50 50 49 44 36 37 38 42 39 41 41 42 42 42 41 42 40 37
52 50 48 43 46 42 39 36 37 36 34 34 35 35 36 39 50 51 50 46 45 38 36 37 42 49 49 48 45 49 48 44 41 40 39 39 39 40 41 41 42 42 42
50 47 44 42 41 40 38 36 36 35 34 33 35 34 35 38 40 52 52 50 48 38 38 45 48 47 46 41 47 47 44 39 39 38 37 38 39 40 40 40 41 40 40
48 43 42 42 39 39 40 39 38 35 34 35 34 33 34 35 37 38 40 42 48 43 45 40 41 42 44 42 38 38 37 38 39 37 37 38 39 38 37 36 34 36 34
45 44 43 43 40 37 38 38 38 36 40 36 34 34 34 34 36 41 40 38 37 41 37 36 34 33 33 32 33 34 35 35 35 37 37 35 36 36 34 36 35 33 31
45 44 43 42 40 39 37 36 46 45 48 47 45 40 39 44 47 48 48 46 46 46 36 32 32 31 31 31 31 32 33 36 35 34 32 32 33 33 34 35 35 33 31
47 45 45 43 41 39 38 37 35 42 49 48 48 48 46 46 49 48 48 47 48 45 32 32 31 31 31 31 31 31 31 32 32 31 31 32 34 34 35 33 33 33 31
47 49 44 42 41 40 39 37 37 37 36 36 47 47 48 49 49 48 48 47 40 40 33 31 31 31 31 31 31 31 31 32 31 34 36 35 35 34 32 32 32 30 29
47 46 43 42 40 41 39 37 37 36 36 35 37 45 48 49 49 49 49 38 37 33 33 33 34 31 31 31 31 31 31 30 31 32 31 30 33 33 30 30 29 34 34
47 47 44 41 41 38 38 37 35 35 35 34 35 35 39 44 42 42 40 39 37 36 36 36 33 31 31 31 30 31 30 30 30 30 32 30 30 30 30 31 30 31 29
46 45 45 41 40 39 39 38 38 35 34 34 34 37 44 40 40 40 39 38 37 36 36 36 31 31 31 30 30 30 29 30 30 33 33 30 32 33 33 31 31 32 32
45 44 43 42 40 39 39 39 37 36 35 34 32 37 46 36 40 39 38 38 37 38 37 34 29 30 29 29 30 27 27 31 34 34 32 33 32 31 30 29 29 30 30
46 44 42 41 41 42 40 38 37 36 36 35 35 37 40 38 38 38 37 38 38 37 36 31 29 29 30 30 31 31 29 33 34 34 31 30 30 32 32 29 30 29 30
45 44 42 41 40 40 38 37 37 38 36 35 35 36 40 39 38 36 36 38 37 35 33 29 29 29 30 30 31 33 35 33 35 34 35 33 33 33 30 28 28 28 29
45 44 42 41 41 38 38 36 36 36 36 35 35 36 38 38 35 34 34 34 35 34 29 28 28 31 31 32 33 36 37 37 35 36 35 34 33 33 32 31 31 29 30
44 44 42 41 39 38 38 36 35 35 35 34 35 35 35 34 34 33 33 33 31 29 29 27 29 31 32 32 34 38 38 38 36 37 35 34 33 32 30 29 29 30 30
MSLP
1013.19 1013.19 1013.24 1013.37 1013.44 1013.54 1013.62 1013.55 1013.44 1013.33 1013.40 1013.57 1013.60 1013.66 1013.87 1014.38 1014.89 1015.51 1016.54 1017.34 1017.84 1019.13 1020.06 1019.83 1020.75 1021.23 1021.71 1021.78 1021.55 1021.79 1022.30 1022.92 1023.83 1024.69 1024.85 1024.89 1024.98 1025.02 1025.30 1025.39 1025.53 1025.75 1025.84
1013.52 1013.55 1013.65 1013.78 1013.87 1013.95 1014.01 1013.77 1013.70 1013.70 1013.80 1013.95 1013.80 1014.01 1014.43 1015.01 1015.54 1016.21 1017.19 1017.84 1018.60 1019.46 1019.93 1019.90 1021.22 1021.73 1021.82 1022.18 1022.43 1022.43 1022.63 1022.96 1023.58 1024.46 1024.95 1025.13 1025.20 1025.17 1025.29 1025.52 1025.68 1025.78 1025.83
1013.78 1013.90 1014.01 1014.14 1014.16 1014.37 1014.29 1014.06 1014.20 1014.24 1014.31 1014.46 1014.48 1014.82 1015.15 1015.70 1016.40 1016.98 1017.65 1018.33 1018.98 1019.34 1020.01 1020.72 1021.44 1021.92 1022.11 1022.59 1022.47 1022.68 1023.04 1023.37 1023.74 1024.39 1025.14 1025.25 1025.37 1025.45 1025.76 1025.94 1026.19 1026.13 1026.03
1014.05 1014.24 1014.41 1014.64 1014.71 1014.75 1014.84 1014.91 1014.79 1014.83 1015.00 1015.18 1015.34 1015.41 1015.88 1016.33 1016.92 1017.61 1018.24 1018.88 1019.49 1020.28 1020.78 1021.07 1021.54 1021.75 1022.24 1022.60 1022.96 1023.33 1023.57 1023.82 1024.11 1024.45 1025.01 1025.31 1025.68 1026.07 1026.20 1026.45 1026.70 1026.78 1026.79
1014.39 1014.68 1014.83 1014.98 1015.21 1015.26 1015.42 1015.49 1015.57 1015.65 1015.77 1015.92 1016.18 1016.53 1016.82 1017.20 1017.71 1018.27 1018.83 1019.49 1019.88 1020.48 1020.82 1021.39 1021.84 1022.11 1022.30 1022.96 1023.19 1023.50 1023.52 1023.92 1024.50 1024.75 1025.23 1025.78 1026.33 1026.58 1027.03 1027.13 1027.21 1027.35 1027.24
1014.63 1015.09 1015.37 1015.47 1015.64 1016.07 1016.22 1016.19 1016.21 1016.40 1016.53 1016.77 1017.01 1017.34 1017.69 1018.06 1018.43 1018.86 1019.32 1019.94 1020.52 1021.13 1021.58 1022.03 1022.21 1022.22 1022.33 1022.67 1023.12 1023.34 1023.62 1024.06 1024.58 1025.07 1025.82 1026.53 1026.86 1026.96 1027.25 1027.43 1027.61 1027.62 1027.55
1014.90 1015.46 1015.76 1015.93 1016.22 1016.49 1016.77 1016.92 1017.22 1017.30 1017.37 1017.58 1017.77 1017.98 1018.39 1018.63 1019.02 1019.50 1020.01 1020.58 1021.09 1021.64 1022.05 1022.48 1022.82 1022.88 1023.30 1023.58 1023.57 1023.87 1024.02 1024.13 1024.52 1025.35 1026.29 1027.02 1027.12 1027.25 1027.32 1027.75 1027.81 1027.83 1027.84
1015.13 1015.61 1015.98 1016.22 1016.53 1016.88 1017.26 1017.71 1018.10 1018.38 1018.49 1018.64 1018.97 1019.25 1019.44 1019.68 1019.96 1020.35 1020.92 1021.41 1021.99 1022.58 1023.01 1023.35 1023.63 1023.76 1024.08 1024.26 1024.66 1024.93 1025.27 1025.67 1025.88 1026.01 1026.68 1027.18 1027.25 1027.49 1027.64 1027.67 1027.74 1027.83 1028.18
1015.07 1015.60 1016.02 1016.34 1016.82 1017.39 1018.13 1018.62 1018.93 1019.27 1019.61 1019.85 1020.00 1020.07 1020.15 1020.40 1020.65 1021.00 1021.53 1022.29 1023.05 1023.60 1023.86 1024.02 1024.10 1024.17 1024.18 1024.77 1025.20 1025.81 1026.01 1026.09 1025.97 1026.04 1026.15 1026.30 1026.74 1027.03 1027.45 1027.64 1027.93 1028.14 1028.20
1014.81 1015.43 1015.99 1016.54 1017.07 1017.90 1018.66 1019.19 1019.69 1020.01 1020.44 1020.69 1021.05 1021.16 1021.21 1021.25 1021.31 1021.74 1022.27 1022.92 1023.77 1024.27 1024.52 1024.56 1024.17 1024.60 1024.65 1025.19 1025.64 1025.92 1026.22 1026.38 1026.40 1026.58 1026.75 1026.75 1026.90 1027.02 1026.96 1027.50 1027.85 1027.80 1027.91
1014.63 1015.34 1016.13 1016.77 1017.56 1018.26 1018.93 1019.52 1020.21 1020.79 1021.17 1021.82 1022.17 1022.25 1022.18 1022.14 1022.28 1022.57 1023.08 1023.51 1024.06 1024.65 1025.02 1025.21 1025.19 1024.93 1025.09 1025.30 1025.73 1025.89 1026.05 1026.56 1026.61 1026.91 1026.98 1026.96 1026.91 1026.97 1027.18 1027.31 1027.26 1027.35 1027.60
1014.57 1015.40 1016.31 1017.21 1017.91 1018.68 1019.30 1020.13 1020.70 1021.30 1021.96 1022.31 1022.72 1023.06 1022.98 1022.84 1022.58 1022.87 1023.34 1023.88 1024.29 1024.78 1025.38 1025.47 1025.35 1025.18 1025.33 1025.51 1025.73 1025.40 1025.67 1026.30 1026.71 1027.00 1027.23 1027.31 1027.21 1027.24 1027.31 1027.30 1027.23 1027.24 1027.35
1014.54 1015.53 1016.43 1017.33 1018.21 1018.99 1019.69 1020.39 1021.03 1021.47 1021.98 1022.60 1022.84 1023.20 1023.35 1023.13 1022.94 1022.84 1023.19 1023.61 1024.18 1024.88 1025.45 1025.26 1025.37 1025.61 1025.97 1026.32 1025.94 1026.11 1026.50 1026.89 1027.09 1027.25 1027.47 1027.43 1027.33 1027.31 1027.29 1027.33 1027.28 1027.21 1027.21
1014.46 1015.49 1016.52 1017.45 1018.52 1019.24 1019.90 1020.50 1021.07 1021.58 1022.20 1022.75 1023.08 1023.39 1023.68 1023.75 1023.70 1023.75 1023.87 1024.32 1024.45 1025.02 1025.09 1025.84 1026.18 1026.41 1026.54 1026.69 1027.03 1027.19 1027.24 1027.10 1027.21 1027.57 1027.60 1027.60 1027.49 1027.50 1027.57 1027.61 1027.57 1027.48 1027.51
1014.44 1015.60 1016.61 1017.49 1018.41 1019.46 1020.18 1020.70 1021.09 1021.44 1021.60 1022.20 1022.82 1023.15 1023.51 1023.91 1023.98 1024.01 1024.22 1024.69 1025.13 1025.48 1026.32 1026.79 1026.92 1027.33 1027.43 1027.56 1027.65 1027.60 1027.59 1027.58 1027.57 1027.66 1027.71 1027.84 1027.79 1027.71 1027.73 1027.67 1027.65 1027.65 1027.79
1014.37 1015.46 1016.39 1017.34 1018.36 1019.31 1020.18 1020.90 1021.17 1021.40 1021.67 1021.93 1022.37 1022.67 1023.23 1023.47 1023.69 1024.01 1024.43 1024.99 1025.36 1025.72 1026.52 1027.09 1027.52 1027.88 1027.96 1027.99 1027.99 1027.94 1027.86 1027.82 1027.86 1027.87 1027.97 1028.00 1027.97 1027.93 1027.85 1027.78 1027.80 1027.80 1027.78
1013.83 1015.02 1016.11 1017.19 1018.18 1019.13 1020.07 1020.66 1021.36 1021.70 1021.79 1021.81 1022.04 1022.57 1023.11 1023.35 1023.78 1024.18 1024.57 1025.02 1025.31 1025.87 1026.76 1027.20 1027.56 1027.84 1027.94 1028.02 1028.16 1028.23 1028.22 1028.15 1028.15 1028.16 1028.19 1028.16 1028.11 1028.02 1027.90 1027.92 1027.91 1027.81 1027.79
1013.61 1014.75 1015.83 1017.00 1017.97 1018.81 1019.61 1020.37 1020.99 1021.50 1021.88 1021.99 1022.06 1022.42 1022.92 1023.28 1023.72 1024.21 1024.61 1025.06 1025.59 1026.10 1026.73 1027.21 1027.56 1027.85 1028.05 1028.19 1028.27 1028.34 1028.34 1028.37 1028.38 1028.41 1028.31 1028.30 1028.18 1028.20 1028.16 1028.08 1028.03 1027.94 1027.78
1013.27 1014.50 1015.54 1016.65 1017.58 1018.44 1019.35 1020.17 1020.83 1021.36 1021.82 1022.22 1022.48 1022.57 1022.80 1023.14 1023.56 1024.00 1024.37 1025.16 1025.80 1026.49 1026.78 1027.13 1027.40 1027.73 1028.03 1028.25 1028.34 1028.42 1028.48 1028.52 1028.53 1028.58 1028.58 1028.53 1028.47 1028.42 1028.38 1028.27 1028.21 1027.86 1027.69
1013.00 1014.01 1015.13 1016.33 1017.44 1018.39 1019.26 1020.02 1020.67 1021.19 1021.77 1022.25 1022.51 1022.81 1022.89 1023.30 1023.70 1024.11 1024.65 1025.28 1025.84 1026.26 1026.70 1027.10 1027.48 1027.77 1027.95 1028.14 1028.34 1028.50 1028.59 1028.63 1028.65 1028.68 1028.62 1028.59 1028.54 1028.51 1028.47 1028.39 1028.32 1028.26 1028.09
1012.60 1013.85 1014.68 1016.04 1017.02 1017.89 1018.71 1019.52 1020.21 1020.89 1021.56 1022.06 1022.44 1022.59 1022.69 1023.09 1023.71 1024.24 1024.75 1025.22 1025.73 1026.24 1026.54 1026.89 1027.29 1027.62 1027.93 1028.16 1028.40 1028.60 1028.69 1028.71 1028.68 1028.68 1028.67 1028.70 1028.69 1028.54 1028.55 1028.51 1028.36 1028.18 1027.96
1012.23 1013.43 1014.51 1015.47 1016.51 1017.49 1018.25 1019.04 1019.84 1020.57 1021.19 1021.86 1022.45 1022.66 1022.84 1023.36 1023.76 1024.23 1024.68 1025.14 1025.63 1025.92 1026.14 1026.61 1027.25 1027.56 1027.96 1028.22 1028.36 1028.63 1028.60 1028.56 1028.62 1028.69 1028.77 1028.76 1028.81 1028.76 1028.67 1028.61 1028.45 1028.22 1027.91
1011.93 1013.12 1014.24 1015.20 1016.06 1017.03 1017.97 1018.68 1019.41 1020.08 1020.79 1021.39 1022.04 1022.48 1022.73 1023.27 1023.69 1024.11 1024.58 1024.95 1025.33 1025.80 1026.26 1026.78 1027.28 1027.67 1027.95 1028.12 1028.19 1028.39 1028.64 1028.45 1028.51 1028.63 1028.87 1028.87 1028.83 1028.72 1028.68 1028.64 1028.42 1028.13 1027.79
1011.50 1012.61 1013.69 1014.73 1015.68 1016.58 1017.41 1018.14 1018.88 1019.59 1020.23 1020.97 1021.59 1022.01 1022.32 1022.87 1023.41 1023.92 1024.38 1024.83 1025.35 1025.84 1026.30 1026.82 1027.21 1027.67 1027.92 1028.05 1028.22 1028.29 1028.34 1028.48 1028.62 1028.71 1028.70 1028.68 1028.70 1028.67 1028.61 1028.49 1028.29 1028.01 1027.67
1011.06 1012.21 1013.23 1014.14 1015.08 1015.99 1016.92 1017.66 1018.41 1019.10 1019.75 1020.38 1020.97 1021.47 1021.90 1022.52 1023.17 1023.73 1024.39 1024.85 1025.23 1025.84 1026.49 1026.87 1027.27 1027.52 1027.74 1027.95 1028.03 1028.09 1028.21 1028.41 1028.55 1028.60 1028.62 1028.69 1028.67 1028.52 1028.40 1028.22 1028.01 1027.78 1027.41
1010.66 1011.71 1012.75 1013.71 1014.57 1015.35 1016.20 1017.09 1017.84 1018.57 1019.30 1019.96 1020.49 1021.05 1021.62 1022.32 1022.93 1023.59 1024.23 1024.73 1025.43 1025.95 1026.40 1026.91 1027.20 1027.42 1027.66 1027.82 1027.89 1027.97 1028.19 1028.34 1028.47 1028.53 1028.48 1028.45 1028.38 1028.27 1028.13 1027.96 1027.76 1027.50 1027.19
Wind_Speed
4 4 4 4 4 4 2 3 2 5 4 4 5 7 11 12 10 10 8 6 10 7 3 7 7 5 4 3 4 4 4 3 3 1 2 2 2 3 3 3 3 3 2
4 4 4 4 5 5 4 5 5 6 6 4 8 10 9 10 9 10 9 7 10 9 7 11 8 5 6 5 4 4 4 4 3 3 1 1 2 2 3 3 2 2 2
4 4 5 5 6 5 5 6 6 7 7 6 9 9 10 10 10 8 10 9 9 9 9 11 8 6 6 2 3 4 3 2 2 3 3 1 2 1 3 3 3 3 3
5 5 6 5 6 6 6 7 7 7 8 8 8 8 10 10 10 10 9 10 11 8 8 7 6 5 5 4 3 3 3 3 3 3 2 2 2 2 3 2 2 3 3
6 5 6 7 6 6 6 7 8 8 7 8 9 9 9 8 6 9 9 8 9 8 8 6 5 6 8 5 4 4 4 3 3 3 3 2 2 2 1 1 2 1 1
6 5 5 6 7 6 5 7 8 8 9 8 8 8 8 5 14 14 10 8 8 7 7 6 5 9 10 12 11 9 6 3 3 3 2 2 1 1 1 1 1 2 1
7 6 6 7 7 7 7 8 7 7 8 8 9 9 9 8 16 16 15 7 7 7 7 6 6 6 8 7 12 13 12 12 8 4 4 1 2 1 2 1 1 1 1
8 7 7 7 8 7 7 7 6 5 6 6 7 7 7 7 15 17 17 9 9 8 7 7 7 7 7 8 7 7 7 7 6 6 6 4 3 2 2 1 2 1 2
9 8 7 7 8 7 7 6 5 6 6 6 5 7 8 7 17 18 13 9 9 7 6 6 6 6 9 10 6 6 5 4 9 13 11 9 7 4 4 3 2 1 1
10 9 8 8 8 8 7 7 4 5 6 6 7 6 11 7 16 16 12 6 7 5 6 6 11 7 8 7 5 5 5 4 3 4 3 5 7 3 7 4 3 3 2
10 10 8 7 8 8 6 4 6 6 8 7 7 6 7 7 8 14 13 5 6 5 4 4 3 9 8 7 6 4 5 5 3 4 3 2 3 3 1 1 1 2 1
11 11 9 8 7 6 9 6 7 8 7 6 6 5 4 4 10 11 12 12 10 6 5 2 4 9 9 8 6 7 8 5 3 3 2 1 2 1 1 1 1 1 2
12 11 9 8 7 7 8 8 6 6 5 5 5 5 3 3 2 11 13 13 13 5 4 7 8 8 8 7 7 8 8 3 2 2 1 1 1 1 1 2 2 2 3
12 10 9 10 8 6 5 5 6 5 5 4 4 4 3 3 3 4 4 5 12 7 8 6 6 6 6 6 5 4 2 3 3 1 1 1 1 1 2 1 1 1 1
11 10 9 7 8 6 5 5 5 3 7 7 4 5 6 4 4 6 7 4 4 6 7 4 3 2 3 2 3 2 2 2 1 1 1 1 1 2 2 1 1 1 1
12 9 9 8 7 7 6 4 5 7 11 9 11 8 4 6 11 11 11 11 12 13 3 2 2 1 2 2 1 1 2 2 1 2 1 1 1 2 2 1 1 1 2
13 11 9 9 8 9 7 6 5 3 10 12 14 13 11 9 13 12 12 12 12 9 2 2 2 3 2 2 2 1 1 1 1 1 1 2 2 3 4 2 2 1 2
12 17 9 8 8 8 8 6 5 6 5 3 9 9 12 11 14 12 12 11 4 3 2 2 2 2 1 2 1 1 0 0 1 1 2 2 3 2 2 2 2 3 3
12 9 9 8 7 9 7 6 5 5 5 4 2 6 11 13 15 15 14 3 3 2 2 2 2 3 2 2 2 1 1 0 0 0 1 1 2 2 3 3 3 7 5
11 17 13 9 8 7 7 7 5 5 5 5 4 5 4 8 6 6 3 3 3 3 3 3 3 3 3 3 2 1 1 1 1 1 1 1 2 2 3 3 3 4 4
10 11 17 9 8 8 8 8 7 6 6 5 4 5 12 8 7 6 5 4 3 2 3 3 3 3 3 2 2 2 1 0 0 0 1 2 3 3 3 3 3 4 2
11 11 10 10 9 8 8 7 7 7 7 6 4 5 15 3 5 5 4 4 4 4 3 3 3 4 3 3 3 2 2 2 1 1 2 1 3 3 3 3 3 3 4
11 11 9 8 8 12 9 7 7 8 7 7 7 6 7 5 5 4 5 4 4 3 3 4 4 4 3 3 3 3 3 1 1 2 2 1 2 3 2 3 4 5 5
12 12 11 9 9 8 8 8 7 10 8 8 8 7 8 7 6 6 5 4 4 4 4 4 4 6 5 4 3 3 2 2 2 2 1 2 3 4 3 3 4 5 5
11 11 10 10 10 9 9 8 8 8 8 8 7 7 6 6 6 5 5 5 5 5 5 4 4 6 7 6 4 4 6 6 3 1 2 2 4 6 5 4 5 5 5
11 11 9 8 8 9 8 8 8 8 8 7 7 7 7 7 6 6 5 6 5 5 6 4 5 7 7 4 4 6 4 1 1 2 3 3 3 3 3 5 6 5 7
Wind_Direction
63 59 66 62 72 69 51 27 66 86 89 91 125 126 133 124 111 99 100 110 99 111 105 127 102 74 49 41 83 94 84 81 108 110 74 57 77 125 116 105 103 108 43
78 81 72 66 67 66 51 54 50 82 72 79 96 95 100 108 110 116 117 122 134 142 134 91 104 107 79 61 28 73 71 58 105 117 94 139 155 151 134 115 84 85 56
80 81 72 70 77 65 51 60 63 68 70 60 74 91 96 101 103 108 123 119 109 105 108 122 121 133 104 98 75 71 69 59 76 134 157 167 86 101 98 70 59 31 12
88 87 88 80 79 73 64 57 62 71 79 74 71 74 86 92 94 98 106 115 115 117 113 103 111 109 115 106 111 136 147 137 138 122 110 99 86 26 58 119 88 33 11
111 102 96 93 83 77 78 77 68 65 71 78 84 73 71 78 89 93 91 91 96 97 92 90 93 124 130 152 145 163 133 107 117 90 83 76 62 63 90 354 97 314 3
118 99 93 89 88 76 76 84 81 82 86 84 85 93 95 100 117 115 112 107 103 107 106 110 130 134 136 130 122 110 105 116 83 94 71 92 99 99 60 77 99 39 326
121 110 105 102 97 96 85 77 78 75 85 88 93 99 100 108 123 124 122 113 117 110 103 97 82 73 72 65 77 73 70 72 82 116 112 101 106 145 120 75 108 138 241
132 131 129 127 119 102 97 90 76 58 69 79 74 67 77 93 106 102 95 81 77 70 75 80 89 83 87 89 81 70 60 62 71 81 97 114 101 130 130 166 152 98 9
145 147 144 140 121 114 104 104 91 94 71 63 72 83 88 93 109 108 95 79 76 72 79 83 84 85 96 104 95 103 97 97 112 116 122 113 83 82 125 91 36 83 31
157 155 149 139 132 122 128 116 71 72 80 74 66 57 92 86 107 109 104 101 88 81 57 60 92 90 90 95 125 142 139 169 104 62 58 68 95 65 105 114 144 85 92
153 144 139 135 127 130 121 97 103 91 89 74 71 53 65 90 106 113 111 93 112 100 90 69 43 82 78 79 123 160 175 157 149 112 96 76 68 50 93 158 192 80 18
145 143 140 130 137 134 120 107 105 109 103 106 102 75 55 54 119 119 117 122 127 115 117 102 95 87 72 63 48 78 97 115 106 99 90 87 64 78 40 32 356 274 234
144 146 139 129 124 130 130 128 122 122 124 130 120 121 103 51 78 134 133 130 124 100 122 116 96 79 57 31 46 66 66 65 74 108 48 24 56 6 4 337 328 310 295
146 142 142 135 130 124 120 131 133 132 124 132 139 136 130 90 79 58 76 113 128 118 120 95 106 91 75 76 56 50 80 103 76 39 35 29 16 30 1 316 300 318 341
144 145 146 147 144 125 118 149 151 161 159 157 165 149 147 161 188 152 138 119 120 127 97 70 68 55 57 39 21 34 33 26 45 31 50 30 5 346 315 326 304 317 251
151 153 158 147 144 139 131 120 177 171 172 166 163 160 175 164 164 154 149 150 154 142 98 115 97 122 169 194 207 296 331 354 22 50 28 347 315 307 295 307 346 261 278
160 158 156 151 151 148 146 151 144 161 181 179 176 178 174 166 168 165 167 171 176 152 99 130 162 193 204 204 204 256 314 350 19 28 1 328 315 295 322 313 313 323 296
155 158 150 150 150 155 161 159 149 160 166 167 198 177 182 177 174 177 176 170 182 139 136 160 188 190 185 185 203 212 237 89 87 346 323 351 359 345 320 325 319 298 291
148 153 147 147 149 155 148 148 156 151 159 141 105 180 182 179 177 185 181 138 142 164 163 152 162 173 186 187 197 174 156 196 190 360 294 310 320 317 308 313 316 326 347
152 154 151 147 148 147 151 155 154 158 153 161 165 169 161 157 172 176 148 135 158 185 172 174 157 165 185 184 168 156 124 51 17 297 318 350 333 320 313 314 317 321 312
150 152 153 149 156 160 161 168 169 159 160 171 174 181 173 168 170 176 166 164 169 159 175 175 169 170 161 150 145 154 162 190 234 350 341 345 329 331 356 334 323 309 311
149 154 156 161 155 159 168 165 162 162 161 161 162 184 180 150 165 169 160 155 159 175 180 155 153 154 160 154 160 155 157 181 200 24 347 12 15 330 327 324 318 309 302
149 152 155 156 158 164 165 160 163 168 166 165 165 174 184 171 173 162 156 156 158 156 144 141 133 134 130 140 158 156 166 194 98 111 92 355 325 314 357 330 325 324 320
152 157 157 157 158 163 163 167 170 172 164 163 170 178 186 175 173 156 154 146 143 143 134 134 140 143 153 161 158 187 123 118 135 170 147 5 332 329 314 308 303 298 294
153 156 160 162 166 163 162 165 165 165 165 167 171 174 175 158 148 149 150 150 146 141 147 143 137 159 166 168 169 156 140 129 126 50 19 329 290 296 300 303 308 303 299
155 157 158 157 156 159 164 164 165 162 165 167 168 166 158 156 156 152 155 143 135 141 144 141 159 164 165 176 172 145 134 129 9 287 262 263 282 297 292 285 293 300 301